Wind_Speed
13 11 8 4 3 6 8 8 7 8 9 11 13 14 15 15 15 14 14 14 16 17 17 16 16 15 15 15 15 15 16 17 16 17 18 20 22 26 28 31 33 34 36 37 37 38 38 39 40 39 38 38 38 38 37 37 36 36 36 36 37 36 35 34 33 34 35 35 33
21 21 20 18 16 14 13 13 15 14 12 9 8 6 5 6 7 8 8 9 11 13 15 17 17 16 15 15 16 16 17 18 17 16 16 18 20 24 27 31 32 34 35 36 35 35 36 36 35 34 32 32 34 34 35 36 36 36 35 36 37 37 36 35 34 35 36 37 35
24 24 24 23 22 21 21 21 21 20 20 18 17 16 15 14 13 11 10 9 7 6 6 8 11 13 14 15 15 16 16 17 16 15 15 16 19 21 24 27 29 31 33 35 35 34 34 33 32 30 28 27 28 30 31 33 35 35 36 36 37 36 36 35 36 36 37 37 37
27 27 26 25 24 23 21 20 20 19 19 18 18 18 18 18 17 16 15 14 13 12 10 9 6 6 9 12 14 15 15 15 15 14 14 15 17 19 20 21 23 26 29 32 33 33 33 32 31 29 27 25 25 26 28 30 32 34 35 36 37 37 36 36 36 36 36 35 36
29 28 27 26 26 24 23 22 21 21 20 21 21 22 21 21 20 19 19 19 19 17 15 13 10 7 4 4 7 10 12 13 14 14 13 13 14 15 15 15 16 19 23 27 29 30 30 31 30 29 27 26 26 26 26 27 29 31 32 33 35 36 36 35 35 35 35 34 34
28 29 29 28 28 26 25 24 22 22 22 24 25 25 24 23 22 22 22 23 23 22 21 19 16 13 10 7 6 4 3 4 8 10 12 12 12 11 11 11 12 14 17 21 24 26 27 28 28 27 27 26 26 26 27 28 29 29 28 27 29 31 33 33 32 32 32 32 33
28 29 29 29 29 28 27 26 24 24 25 27 28 27 25 24 24 24 24 24 25 26 26 25 23 21 18 15 14 13 11 10 7 5 4 6 9 10 10 10 10 11 14 17 21 23 24 24 23 23 23 23 24 25 26 29 30 29 27 25 25 26 27 29 29 29 29 29 31
30 30 30 30 29 29 29 28 27 28 29 29 29 28 27 26 25 24 25 26 27 28 29 29 28 27 25 23 22 21 19 17 15 13 11 9 6 3 4 7 8 10 12 15 18 21 22 22 20 19 18 18 20 22 24 27 29 30 29 28 27 27 27 28 27 27 28 28 29
30 31 31 30 30 29 29 29 30 30 30 30 30 29 28 26 26 25 26 26 27 27 29 30 31 30 30 29 28 27 26 24 23 21 18 15 14 12 10 7 3 2 6 10 14 18 20 20 20 18 16 15 16 18 21 23 25 27 29 30 30 30 31 31 29 29 29 29 29
30 30 30 29 28 28 28 29 30 30 30 30 30 29 28 27 27 26 26 25 26 28 29 30 31 32 32 31 31 30 29 28 27 27 26 23 21 19 18 18 16 13 9 4 2 8 13 16 17 17 17 16 16 17 19 20 22 23 25 27 29 30 31 33 32 31 31 32 31
30 29 27 26 25 26 27 29 30 30 30 29 28 28 28 28 28 27 26 27 28 29 30 30 31 32 32 31 31 29 29 29 29 29 29 29 28 26 25 23 22 21 19 16 13 9 4 1 7 12 15 16 16 17 18 19 20 20 21 21 23 26 28 30 31 32 32 32 31
29 28 26 25 24 26 28 30 31 31 30 28 27 26 27 27 27 27 28 30 30 30 30 31 31 31 31 31 30 29 29 28 28 28 29 30 30 30 29 29 27 26 25 23 21 19 18 16 11 5 2 7 11 14 16 17 18 19 18 18 18 19 22 24 27 29 30 30 30
28 27 26 26 26 28 30 31 32 31 30 28 27 26 25 25 26 27 29 30 30 30 30 30 31 31 30 30 29 29 29 28 28 28 28 29 29 30 30 30 30 29 29 28 26 25 24 23 21 20 16 11 6 1 4 9 12 16 18 18 17 17 18 19 21 24 26 26 27
28 28 28 28 30 31 32 33 32 31 30 28 27 26 25 25 26 27 28 28 29 29 29 29 30 30 29 29 29 28 28 28 28 28 28 28 29 29 30 30 30 29 29 29 28 28 27 26 24 23 22 21 19 16 12 8 4 4 8 12 15 17 18 19 20 22 23 24 25
28 29 29 30 31 32 32 32 31 31 30 28 26 25 24 24 25 26 26 27 27 28 28 28 28 28 28 28 28 28 28 28 27 27 28 28 28 29 29 29 29 29 28 28 28 28 28 28 27 25 24 22 22 20 19 17 15 13 11 8 5 8 12 16 19 22 23 24 24
29 29 29 29 30 31 31 31 30 29 28 28 26 25 24 23 24 25 25 25 26 27 27 27 27 27 26 27 27 28 28 28 28 28 27 27 27 28 28 29 29 28 28 28 28 28 27 27 26 25 24 23 22 21 20 19 18 18 17 16 15 13 10 7 9 14 18 21 23
29 29 29 29 29 30 30 30 28 26 26 27 27 26 25 24 24 24 25 25 25 26 28 28 28 28 27 27 27 28 29 29 29 28 28 27 27 27 28 28 28 28 28 28 29 28 27 26 25 24 23 23 22 22 21 21 20 19 18 17 17 17 16 15 13 10 8 11 16
30 30 30 29 29 29 28 27 25 24 24 26 26 27 26 26 25 25 25 26 26 27 28 28 29 29 29 29 28 28 29 29 28 27 27 27 27 27 27 28 28 28 29 29 29 28 27 26 24 23 22 21 21 21 21 21 20 20 19 19 18 17 17 17 17 16 14 12 9
30 30 30 29 28 26 25 23 22 22 22 23 25 26 27 26 26 27 27 27 27 28 29 29 29 30 30 30 30 29 28 28 27 26 26 26 26 26 26 27 28 28 29 28 28 27 26 25 24 23 22 21 21 20 20 20 20 20 20 20 19 19 18 18 17 17 16 16 15
29 29 28 27 25 24 22 21 20 21 22 23 25 26 27 27 28 29 29 28 28 28 29 30 30 30 30 30 30 29 28 27 27 26 26 25 25 24 24 25 26 26 27 27 27 26 26 25 24 23 23 22 21 21 20 20 19 19 20 20 20 20 20 19 18 18 17 17 16
26 25 25 24 23 22 21 21 21 22 24 25 26 27 28 29 30 30 30 29 29 29 30 30 30 30 30 29 29 28 27 26 27 26 26 25 25 24 24 23 24 25 25 26 26 25 25 24 24 23 23 22 22 22 21 20 19 19 19 19 19 19 19 19 19 19 19 18 17
23 22 22 23 22 22 22 23 24 25 26 27 28 28 29 29 29 29 30 30 30 30 30 30 30 30 29 28 27 26 26 26 27 27 26 25 25 24 24 23 24 25 26 26 26 25 24 23 23 22 22 22 22 22 21 20 20 19 19 19 19 19 19 19 20 20 19 19 19
22 22 22 22 22 23 23 24 25 26 27 27 27 27 27 27 28 28 29 30 30 30 29 28 28 28 28 27 26 26 26 26 27 27 27 26 25 24 24 23 24 25 25 26 26 26 24 23 22 22 21 20 21 21 20 19 20 19 19 19 19 19 19 19 20 20 20 19 19
22 22 22 23 23 24 25 25 26 26 26 25 25 24 24 25 25 26 27 28 28 28 27 26 26 26 26 27 26 25 25 26 26 27 27 27 26 25 23 23 23 23 23 24 25 25 24 23 22 21 20 19 19 18 18 18 18 18 18 18 18 18 19 20 20 20 20 20 19
23 23 24 24 24 25 25 25 25 25 24 23 23 22 22 22 23 24 25 26 26 26 26 26 25 25 25 26 26 26 25 25 26 26 26 26 25 24 23 22 20 20 21 23 24 24 23 23 22 20 19 18 17 17 16 16 17 17 17 17 17 17 18 19 19 20 20 19 19
24 24 24 24 24 25 25 24 23 23 23 23 23 22 22 22 22 23 24 24 24 24 24 25 24 24 24 25 26 26 26 25 25 25 25 25 24 23 22 21 20 19 20 22 23 23 23 23 22 21 20 18 17 16 16 15 16 16 16 16 16 16 17 17 18 18 19 18 19
23 23 22 23 23 24 23 23 22 22 22 23 23 23 22 22 22 23 23 24 23 23 23 24 23 23 23 24 26 26 26 25 25 25 24 24 23 22 22 21 20 19 20 22 23 23 22 22 23 22 20 18 16 15 15 15 15 15 15 15 15 15 16 16 16 17 17 17 18
21 21 21 21 22 22 22 22 22 22 22 22 22 22 22 22 23 23 23 23 23 23 23 22 22 22 22 23 24 24 24 24 24 23 23 23 22 21 21 20 20 20 21 22 23 23 22 22 22 22 21 18 16 15 14 14 14 14 14 14 14 15 15 15 15 15 16 17 17
19 19 19 20 20 21 21 21 21 21 21 21 21 21 21 22 22 23 23 23 23 23 22 21 21 22 22 22 22 23 23 23 23 23 22 22 21 21 20 20 20 20 21 22 22 22 22 22 22 22 21 19 16 14 13 13 13 13 13 13 13 14 15 14 14 15 15 16 16
19 18 18 18 19 19 19 19 19 19 19 19 20 20 20 21 21 22 22 22 22 22 21 20 21 21 21 21 22 22 22 23 23 22 22 22 21 20 19 19 19 20 21 22 22 22 22 22 22 22 21 19 16 14 13 13 13 13 13 13 13 14 14 14 14 14 15 15 15
19 19 18 18 18 18 18 18 18 18 18 18 18 19 19 19 19 19 20 20 20 20 20 21 21 21 20 20 21 21 21 22 23 22 22 21 20 19 19 19 19 20 21 22 22 22 22 22 22 21 20 18 16 14 13 13 13 12 12 12 13 14 14 14 14 14 15 15 15
19 19 19 18 18 18 18 18 17 17 17 17 18 18 18 18 18 17 17 18 18 19 20 20 21 20 20 19 19 20 21 21 22 22 21 21 20 19 19 19 20 20 21 22 22 22 22 22 22 21 20 18 15 14 14 13 12 12 12 12 13 13 14 14 14 14 15 15 15
20 19 18 18 18 18 18 18 18 17 17 17 17 17 17 17 17 17 17 17 17 17 17 18 19 18 18 18 18 18 19 20 21 21 21 20 19 19 18 19 19 20 21 21 22 22 22 22 22 21 20 17 15 14 13 13 12 12 12 12 13 13 13 14 14 14 14 14 14
19 18 18 17 17 17 18 18 18 18 17 17 17 17 17 17 17 17 17 16 16 15 16 16 16 16 15 15 15 16 18 18 19 20 20 19 18 18 17 18 19 20 21 21 21 22 22 22 22 21 20 17 15 14 13 13 12 12 12 13 13 14 14 14 14 14 14 14 14
18 17 17 16 16 17 17 17 17 17 17 17 17 17 17 17 16 16 16 16 15 15 15 15 16 15 15 14 14 15 16 17 17 18 19 18 17 17 16 17 18 20 21 21 21 21 22 21 22 21 19 17 15 14 13 13 12 12 13 14 14 14 14 14 14 14 14 14 14
16 16 15 15 15 15 16 16 16 16 16 16 16 16 16 16 16 16 16 16 15 15 15 15 16 16 15 14 13 14 15 15 15 16 17 17 16 16 15 15 16 19 20 20 21 21 21 21 21 21 19 17 15 14 14 13 13 13 13 14 14 14 14 14 14 14 14 14 14
15 14 14 14 14 14 14 15 15 15 15 15 15 15 15 15 15 15 15 16 15 14 14 14 15 16 15 13 12 12 13 13 14 14 15 15 15 14 13 13 14 16 18 19 20 20 20 20 20 20 19 17 16 15 14 14 13 13 14 14 14 14 14 14 14 14 14 14 15
14 14 13 13 13 14 14 14 15 15 15 15 15 14 14 14 14 14 14 14 14 13 13 13 14 15 14 12 11 11 11 11 12 13 13 13 12 12 12 12 13 14 15 17 18 19 19 19 20 20 19 17 16 15 14 14 14 14 14 14 14 14 14 14 14 14 14 14 15
15 14 14 14 14 14 14 15 15 15 15 15 15 14 14 14 13 13 13 13 12 12 12 12 13 13 13 11 10 10 10 10 11 12 12 11 11 10 11 11 12 12 13 15 16 17 18 18 19 19 19 17 16 15 14 14 14 14 14 14 14 14 14 14 13 14 14 15 15
17 17 17 16 16 16 16 17 17 17 17 17 16 16 15 14 14 14 14 14 14 13 12 12 14 14 14 12 11 11 11 12 12 13 13 12 11 11 11 12 12 13 13 14 16 17 17 17 18 18 18 17 15 14 13 13 13 13 13 14 14 14 14 14 14 14 14 15 15
20 20 20 19 19 19 19 20 20 20 20 20 20 19 18 18 18 19 19 18 18 18 17 17 18 19 18 17 15 15 15 15 16 16 16 15 14 13 14 14 15 15 16 16 17 18 18 18 18 19 19 18 16 13 12 12 12 12 13 13 14 14 14 15 14 14 14 14 14
Wind_Direction
46 40 29 3 303 254 236 231 245 255 255 252 251 248 245 244 242 241 241 240 243 246 247 247 246 245 245 245 246 247 250 253 256 256 255 251 247 242 238 233 228 224 221 218 214 211 208 206 203 201 200 199 198 198 198 198 198 199 200 201 202 204 206 207 207 207 207 208 209
59 60 60 59 56 55 51 44 37 33 31 25 12 351 322 297 280 274 270 266 263 260 257 253 252 252 252 254 254 255 257 261 264 265 264 259 252 245 239 233 227 222 219 215 210 206 204 202 200 199 198 197 197 197 198 199 200 200 201 202 204 205 207 207 207 208 208 209 211
56 56 57 57 55 53 50 46 42 41 41 40 40 39 38 36 32 28 23 19 7 342 310 283 268 260 257 256 257 258 260 264 267 269 268 263 256 248 239 233 228 223 218 211 206 202 200 198 198 197 197 197 197 197 199 200 201 202 202 203 204 205 205 206 207 207 207 209 211
54 53 52 52 51 51 50 47 43 41 41 41 41 40 39 37 35 33 33 35 36 34 27 15 350 302 273 263 259 258 260 264 268 270 268 263 256 250 243 236 232 226 219 211 206 201 198 196 196 196 197 197 197 199 200 201 201 202 203 204 204 204 203 204 205 205 204 205 207
52 52 51 51 50 51 51 49 46 44 44 45 45 43 41 38 36 35 36 37 36 35 35 36 38 35 11 306 276 266 263 263 264 266 266 262 256 251 247 242 236 228 220 213 209 205 200 198 196 197 197 198 199 200 201 202 201 202 202 203 203 203 203 203 203 203 203 203 205
50 51 51 51 51 51 50 49 47 46 47 48 46 44 41 39 37 36 36 36 38 39 42 45 47 50 54 55 48 31 352 298 275 267 264 261 257 254 251 247 241 232 223 216 212 209 206 202 198 196 197 198 198 199 201 202 202 202 202 202 202 202 201 201 201 202 203 204 206
50 50 50 50 50 50 49 49 48 47 47 47 46 44 41 38 37 37 38 39 41 42 44 45 46 49 52 56 57 56 52 45 37 18 326 285 269 259 252 248 242 235 227 220 216 214 211 207 203 201 199 197 196 197 199 201 201 201 202 203 203 203 202 200 200 201 202 205 208
51 50 50 49 49 49 49 48 48 47 47 45 44 42 40 38 37 38 39 40 41 42 43 45 46 48 51 53 53 54 53 53 51 48 46 44 30 342 278 255 243 234 226 222 219 217 216 214 212 212 212 209 203 199 198 198 198 199 201 203 205 207 206 205 204 205 206 208 211
49 49 50 49 49 48 48 48 49 48 47 45 43 41 39 38 38 38 39 39 41 42 44 45 47 49 51 51 51 50 50 50 50 51 53 56 56 54 50 41 20 269 236 227 222 219 218 218 219 222 225 225 219 211 204 199 197 197 199 202 205 208 210 211 211 211 212 213 215
48 48 48 48 47 48 49 49 49 48 47 46 45 43 41 39 38 38 39 40 42 44 44 44 46 47 48 48 48 47 46 47 48 50 51 54 56 56 56 54 52 48 45 40 235 225 221 220 221 224 227 230 227 221 215 210 205 201 200 201 204 206 208 211 211 212 213 215 217
48 48 47 47 47 48 50 49 48 47 46 45 44 43 42 40 39 38 39 42 44 44 44 44 45 46 46 46 45 44 44 45 46 48 49 50 52 53 53 54 54 54 54 54 55 56 56 242 229 224 222 223 223 221 219 217 215 212 210 207 206 205 205 207 208 209 210 212 215
48 48 47 47 48 49 49 49 47 46 44 42 41 41 41 40 39 39 41 43 44 45 45 46 46 45 45 45 44 44 43 43 44 45 46 47 48 49 50 50 51 52 53 53 55 55 54 52 49 48 211 219 221 222 221 219 219 219 218 217 213 208 205 204 203 204 206 208 210
48 47 47 46 47 48 49 48 46 44 41 39 38 38 38 38 39 40 41 43 44 45 46 46 47 46 45 44 45 45 44 44 43 43 43 43 44 45 45 46 47 47 48 49 50 50 51 51 52 51 49 45 39 330 239 231 228 226 224 223 220 217 212 208 204 203 204 206 208
47 46 45 45 46 47 47 47 45 42 39 36 35 35 36 37 38 40 41 42 44 45 46 46 47 47 46 45 46 46 46 45 44 43 42 42 42 42 42 42 43 43 43 44 45 45 46 46 46 47 47 46 44 43 41 33 5 275 245 237 231 228 225 221 216 211 208 208 210
46 45 44 44 45 46 47 46 43 40 37 35 33 32 33 33 35 37 40 41 43 45 46 46 46 46 46 46 47 47 47 46 45 43 41 40 40 40 40 39 39 39 39 40 40 41 41 41 41 40 40 40 40 41 42 42 40 36 27 8 318 268 248 238 231 225 220 217 216
44 43 43 42 43 44 45 45 43 40 37 35 34 32 31 31 33 35 37 38 41 44 46 46 45 45 45 45 46 47 48 47 45 43 41 39 38 38 38 38 37 37 36 36 37 37 37 37 37 36 36 35 34 34 34 35 37 37 36 34 29 19 0 321 275 251 240 234 229
43 42 41 41 41 42 43 43 42 39 38 38 37 36 34 33 34 35 36 37 40 42 45 46 46 45 44 44 44 45 46 46 45 44 42 40 38 37 37 37 36 35 35 35 34 34 33 33 32 32 32 32 30 29 28 28 28 29 29 29 29 29 26 21 11 350 307 271 251
42 40 39 39 40 41 41 41 40 38 38 40 40 39 38 36 35 36 37 38 39 41 43 44 45 45 45 44 43 43 44 44 44 44 44 43 41 40 39 37 36 35 35 33 32 31 30 29 29 29 29 29 28 26 24 23 22 21 21 20 21 21 21 21 21 19 13 0 330
40 39 37 37 37 38 38 38 36 36 37 39 40 41 40 38 38 38 39 39 39 40 41 42 43 44 44 44 44 43 43 44 44 44 45 45 44 42 40 38 37 36 34 33 31 29 27 27 27 27 27 27 27 25 23 21 19 17 15 14 14 13 13 12 12 13 14 14 13
39 37 36 35 35 35 35 34 34 35 36 38 39 40 39 38 38 39 39 38 38 39 40 40 41 41 42 43 43 42 42 43 43 44 45 45 45 43 41 40 38 36 34 32 29 27 25 24 24 24 24 25 26 24 22 19 17 15 13 11 9 8 6 5 3 3 3 5 9
37 36 35 34 33 33 33 33 34 35 36 38 38 38 38 38 38 38 38 38 39 39 39 39 39 39 39 40 40 40 40 41 41 42 43 44 44 43 42 40 38 36 33 31 29 26 24 22 21 20 20 22 23 23 22 19 16 14 11 9 7 5 3 1 359 358 358 358 358
35 34 34 34 33 33 33 34 35 36 37 37 37 38 38 38 37 38 38 40 40 40 40 38 38 37 37 38 37 37 37 39 40 40 41 41 41 41 40 39 37 35 32 29 27 24 22 21 19 18 17 18 20 21 20 17 15 13 10 8 5 3 1 359 357 356 355 354 352
32 32 32 32 32 33 34 35 36 36 36 36 36 36 36 36 36 37 38 40 40 41 40 39 38 37 37 38 37 36 36 36 37 38 39 39 39 39 39 37 35 33 30 27 24 22 20 19 17 16 15 15 16 17 17 15 14 12 9 7 4 2 0 359 357 355 353 351 350
29 30 30 31 31 32 33 34 35 35 35 34 34 34 34 34 34 35 37 38 39 40 40 40 39 38 38 38 38 37 35 34 34 35 36 36 37 37 37 36 34 32 28 25 23 21 20 19 17 15 13 13 13 13 13 13 12 11 9 7 4 2 0 359 357 356 354 351 349
28 28 29 30 30 31 32 33 32 32 32 32 32 32 32 31 32 33 34 35 36 37 38 39 38 37 37 37 38 37 36 34 33 32 32 33 33 34 35 34 33 30 26 22 21 20 21 20 18 15 13 12 11 11 11 11 11 10 8 7 5 2 360 358 358 357 356 353 350
27 27 27 28 29 30 30 30 30 29 29 30 31 31 30 30 30 31 32 32 33 34 35 35 36 35 35 35 36 36 35 34 33 32 31 30 30 31 32 32 31 28 23 19 18 19 20 20 19 17 14 12 11 10 10 9 9 8 8 7 5 3 360 357 355 355 354 352 350
27 26 26 27 28 28 28 28 28 27 27 27 28 28 29 29 29 30 30 30 30 31 32 32 32 33 33 33 33 33 33 32 32 31 31 30 29 29 29 30 29 25 20 16 16 17 18 18 17 16 15 13 12 11 9 7 6 6 7 6 5 2 359 356 353 351 350 349 348
25 25 25 26 26 27 27 27 27 26 25 25 25 26 27 28 29 29 28 28 28 29 29 28 29 30 31 31 30 30 30 30 30 30 30 29 29 28 27 27 26 23 17 14 14 15 15 15 15 15 14 13 12 10 9 7 5 5 5 4 3 0 357 354 351 349 347 345 345
23 23 24 24 25 25 26 26 25 24 24 24 24 26 26 27 27 27 27 27 27 27 26 25 26 27 28 28 28 28 28 28 28 28 27 27 27 27 26 25 24 21 16 13 13 13 13 13 13 13 12 12 11 10 9 7 4 3 2 1 360 357 355 352 349 347 344 343 342
21 21 22 22 23 24 24 24 23 23 23 23 24 25 26 26 26 26 26 26 26 25 25 24 25 26 26 25 26 26 25 25 26 26 25 24 24 23 23 23 22 19 15 12 12 12 12 11 11 10 11 11 11 10 8 5 3 2 0 359 357 355 352 349 347 345 343 341 340
19 19 20 21 21 21 21 21 21 21 22 23 24 25 26 26 25 24 24 23 23 23 24 26 26 25 25 25 25 24 24 24 24 24 23 22 22 21 21 20 20 17 14 11 11 10 10 10 9 9 9 9 9 9 6 3 1 0 358 357 355 353 351 348 346 344 342 341 340
17 18 18 18 18 18 19 19 19 19 20 21 22 23 24 24 24 23 22 22 21 21 22 23 24 24 24 23 23 22 22 23 22 22 22 22 21 20 19 18 18 16 12 10 10 9 9 9 8 7 8 8 8 7 5 2 0 358 356 354 353 351 349 347 344 342 341 340 339
15 16 16 16 15 15 16 16 16 17 17 19 20 20 21 20 20 20 20 20 20 19 19 20 21 21 21 21 20 20 21 21 21 21 21 22 21 20 18 17 16 14 11 9 9 9 8 7 6 6 6 6 6 5 2 0 358 356 354 352 351 349 347 346 343 342 340 339 339
12 13 13 13 12 12 12 13 13 14 14 15 16 17 17 17 16 16 16 15 16 16 17 18 18 18 18 19 18 18 19 19 19 19 20 20 20 19 17 16 14 13 11 10 9 8 7 6 5 5 4 4 3 2 359 357 356 354 352 350 348 347 345 344 343 342 340 339 338
10 10 9 9 9 9 10 10 11 11 12 12 13 13 13 13 13 12 11 10 11 12 13 14 14 14 15 16 16 17 17 17 16 17 17 18 17 16 15 13 12 13 13 11 10 8 6 5 5 4 3 2 1 359 357 354 353 351 349 347 345 344 343 342 341 340 338 338 337
7 7 6 7 7 8 8 9 9 10 10 10 10 9 9 9 9 8 7 6 7 7 8 8 9 10 10 11 11 12 14 14 13 13 14 15 15 13 11 10 9 11 12 11 9 7 5 4 4 3 2 1 359 357 355 352 349 347 345 343 342 341 340 339 338 336 336 335 335
6 6 6 6 7 8 8 8 9 10 10 9 8 7 7 6 6 5 5 5 4 4 4 5 5 6 6 5 5 6 9 10 10 9 10 11 12 10 8 7 6 8 9 9 7 5 4 4 3 3 2 1 358 355 352 349 346 343 341 340 338 337 337 335 334 333 332 331 331
6 6 6 7 8 9 9 10 11 11 10 9 7 7 6 5 5 4 3 3 2 0 0 2 2 2 1 0 360 1 4 7 8 7 7 7 8 7 5 5 5 6 6 7 5 4 4 3 4 3 3 0 357 353 350 346 343 340 338 337 335 334 333 332 331 329 328 328 327
6 7 8 8 8 9 10 11 12 11 9 8 7 6 6 5 4 3 2 2 1 359 359 360 0 360 359 358 359 1 4 6 7 6 5 4 4 4 4 4 4 5 6 6 5 5 4 4 5 4 3 1 357 352 348 344 340 338 336 335 333 331 331 330 329 327 325 324 324
6 7 8 9 9 9 10 10 11 10 9 7 7 6 5 4 3 2 2 2 2 1 0 359 359 360 0 1 2 3 4 6 7 7 5 3 3 3 4 4 4 5 5 6 5 5 5 5 5 5 3 1 357 352 348 343 340 337 336 335 332 330 328 328 326 324 323 322 322
6 7 7 8 8 8 8 8 8 7 7 7 6 5 3 2 2 2 2 2 3 2 1 359 359 360 1 3 2 2 2 3 4 4 4 3 3 3 3 2 1 2 2 3 3 3 4 4 4 4 3 1 358 354 349 346 341 338 336 334 332 329 326 325 323 322 320 320 320
Height
711 711 711 711 711 711 710 711 711 711 711 710 710 710 710 709 708 707 707 707 708 708 708 708 708 707 707 706 706 705 705 704 704 703 703 703 704 704 704 704 704 704 704 705 706 707 707 708 708 708 709 709 710 711 712 713 715 717 718 719 721 723 726 728 729 731 732 734 735
712 711 711 711 712 712 711 711 711 711 711 711 711 711 710 709 709 708 708 708 708 708 707 706 706 705 705 704 704 704 703 702 702 701 701 701 701 702 702 703 703 702 702 703 704 704 705 706 706 706 707 707 708 709 710 712 714 715 717 719 720 722 724 726 728 729 730 731 733
713 712 712 712 712 711 711 711 712 711 711 711 710 710 709 709 709 709 709 708 707 706 705 705 704 704 703 703 703 702 702 701 700 700 700 700 700 701 701 701 701 701 701 701 702 702 703 704 704 705 705 706 707 708 709 711 713 714 716 717 719 721 723 724 726 727 728 729 731
714 714 713 713 713 713 713 714 714 714 713 713 712 711 710 710 710 709 708 707 706 705 704 703 702 702 702 702 702 701 701 700 700 700 700 700 700 700 700 700 700 701 701 700 700 701 701 702 703 704 704 706 707 708 709 710 712 713 714 716 718 719 720 722 724 725 726 727 728
716 716 716 716 715 715 715 716 716 716 715 714 713 712 712 711 711 710 709 707 706 705 704 703 701 701 701 701 701 701 701 700 700 700 700 700 700 700 700 700 700 700 700 700 700 701 701 701 702 702 704 705 706 707 709 710 711 713 714 715 716 717 718 719 721 722 723 724 726
719 719 718 718 718 717 717 718 719 718 717 715 714 713 713 713 713 712 711 709 708 707 705 703 702 700 700 699 699 699 700 700 700 700 700 700 700 700 700 699 699 699 699 700 700 701 701 701 701 702 703 704 705 706 707 709 710 712 714 715 716 716 717 718 719 720 721 722 724
721 721 720 720 720 720 720 720 720 719 718 715 714 714 715 715 714 714 713 711 709 708 706 704 703 702 701 700 699 699 699 699 699 700 700 700 700 700 700 700 699 699 699 700 700 701 701 701 701 702 703 704 704 705 706 707 709 711 713 714 716 716 717 717 718 719 720 722 724
723 723 723 722 722 722 722 721 721 719 718 717 716 716 717 716 716 715 714 712 711 709 708 706 704 703 702 701 701 700 700 700 699 699 699 699 699 700 700 700 700 700 700 700 700 700 701 701 701 702 702 703 704 705 706 706 707 709 710 713 714 715 716 717 718 719 720 721 723
725 725 725 724 724 724 724 723 722 721 720 719 719 719 719 719 719 717 716 714 713 711 709 708 706 705 704 703 703 702 702 702 701 701 700 699 699 699 699 699 700 700 701 701 701 701 701 701 701 702 702 703 704 705 706 707 707 708 709 710 712 713 714 716 717 718 719 720 722
728 728 728 728 728 728 727 726 724 723 722 721 722 722 722 722 721 719 718 717 714 712 710 709 708 706 706 705 705 705 704 704 703 703 702 701 701 700 699 699 699 699 699 700 701 701 702 702 702 702 703 704 704 705 706 707 707 708 708 709 710 711 712 713 714 716 717 718 719
731 731 731 732 732 731 729 727 726 725 724 725 725 724 724 724 723 722 720 718 714 712 711 710 709 709 708 708 708 707 707 706 705 705 704 704 703 703 702 701 700 699 699 699 699 700 701 702 702 703 703 704 704 705 706 707 708 708 708 709 709 710 710 711 712 713 714 715 717
735 735 735 735 734 733 730 728 727 727 727 727 727 726 726 725 725 724 722 719 716 714 713 712 711 711 710 710 710 709 709 708 708 707 707 706 705 705 704 703 703 702 702 701 700 700 701 701 702 703 703 704 705 705 706 706 707 708 708 709 709 710 710 710 711 712 712 714 715
739 738 738 736 734 732 730 729 729 729 729 729 729 728 728 727 727 725 723 721 718 716 715 714 713 713 713 712 712 711 710 710 710 709 709 708 708 707 706 705 705 704 704 704 703 703 702 702 701 702 702 704 705 706 706 707 707 708 708 709 709 710 710 710 711 711 712 713 714
740 739 738 736 734 731 730 729 730 730 731 731 730 730 729 729 728 727 725 723 721 719 718 717 715 715 715 715 714 713 713 712 712 711 710 710 709 709 708 708 707 706 706 706 705 705 704 704 704 703 703 703 704 705 705 706 707 708 708 709 709 709 710 710 711 711 712 712 713
740 739 737 736 734 733 732 731 732 733 733 732 732 731 731 730 729 728 726 725 724 722 721 719 718 718 717 717 716 715 715 714 714 713 712 712 711 711 710 709 709 708 708 707 707 706 705 705 705 705 705 705 705 705 706 706 707 707 708 708 709 709 710 710 711 711 711 711 712
741 739 738 737 736 735 734 734 735 735 735 734 734 733 732 732 730 729 728 727 725 724 723 721 720 719 719 719 718 717 716 715 715 714 714 714 713 713 712 712 711 710 709 709 708 707 707 707 707 707 707 707 707 708 708 708 708 708 708 708 709 709 709 710 710 711 711 711 711
741 740 740 739 738 737 737 737 738 738 738 737 736 735 734 733 732 731 730 729 727 726 724 723 722 721 720 719 719 718 717 716 716 716 715 715 715 715 714 714 713 712 711 710 709 709 709 709 709 709 709 709 709 709 709 709 709 709 709 709 709 709 709 709 709 710 710 710 710
742 741 741 740 740 740 740 741 742 741 740 739 738 737 736 736 735 734 732 731 729 727 726 725 724 723 722 721 720 719 719 718 718 718 718 718 717 716 716 715 714 714 713 712 712 712 712 711 711 711 711 710 710 710 710 710 710 710 710 710 710 710 710 709 710 710 710 710 710
743 743 743 743 743 743 744 745 745 744 743 741 740 739 739 738 737 735 733 731 730 729 727 726 725 724 723 723 722 721 721 721 721 720 720 720 719 718 718 717 716 716 715 714 714 715 714 714 714 713 713 712 712 711 711 711 711 711 711 711 711 711 711 711 711 711 710 710 709
747 746 746 746 746 747 747 747 746 745 744 743 741 740 739 739 737 735 734 732 731 730 728 727 726 725 725 724 724 724 724 724 723 723 723 722 721 721 720 720 719 719 718 718 718 718 717 717 716 715 715 714 714 713 712 712 712 712 711 711 711 711 712 712 712 711 711 710 709
750 750 750 750 749 749 749 748 747 746 744 743 741 740 739 739 737 736 734 734 732 731 729 728 727 727 726 726 725 725 726 726 725 725 724 724 723 723 723 722 722 722 721 721 720 720 719 719 718 717 716 715 715 714 714 713 713 713 712 712 712 712 713 713 712 712 711 710 710
754 753 753 752 751 751 749 749 747 746 744 743 742 741 740 739 739 738 736 735 733 732 731 730 729 729 728 728 728 728 728 727 727 726 725 725 724 724 724 724 723 723 722 722 722 721 721 720 719 719 718 717 716 715 715 714 714 713 713 713 713 713 713 713 713 712 711 711 710
755 755 754 754 753 752 750 749 748 746 745 744 744 743 742 742 741 740 739 737 735 734 733 733 732 732 731 731 730 730 729 729 728 727 727 726 726 725 725 724 724 724 724 723 723 723 722 722 721 720 719 719 718 717 716 716 715 715 714 714 714 714 714 714 713 712 712 711 711
757 756 755 754 754 752 751 750 749 748 747 747 746 746 745 744 743 742 741 739 738 737 736 735 735 734 734 733 732 732 731 730 729 729 728 727 727 727 726 726 726 725 726 726 726 725 724 723 722 721 721 720 719 719 718 718 717 716 716 716 715 715 714 714 714 713 713 712 712
758 757 756 755 754 753 752 751 751 750 750 749 749 748 747 746 745 744 742 741 740 739 738 737 737 736 735 734 734 733 732 732 731 730 729 729 729 728 728 728 728 728 728 728 728 727 726 725 724 724 723 721 721 720 720 719 719 718 718 717 717 716 716 715 715 714 714 714 714
760 759 758 757 756 755 754 753 753 753 752 751 750 749 748 747 746 745 744 742 741 740 739 739 738 737 737 736 735 734 734 733 732 732 731 730 730 730 729 729 729 729 730 730 729 729 728 727 726 725 724 723 722 721 721 721 720 720 719 719 719 718 717 717 716 716 716 716 716
762 761 760 759 758 757 756 755 755 754 753 752 751 750 749 748 747 746 745 744 743 742 741 740 739 739 738 737 736 735 735 734 734 733 733 732 732 731 731 731 731 731 731 731 730 729 729 728 727 726 725 724 724 723 722 722 721 721 720 720 720 719 719 719 718 718 718 717 717
764 763 762 761 760 759 758 757 756 755 754 753 752 751 750 749 748 747 746 745 744 743 742 741 741 740 739 739 738 737 737 736 735 735 734 734 734 733 733 733 732 732 732 732 731 730 729 729 728 727 726 726 725 724 724 723 723 722 722 721 721 721 721 720 720 719 719 719 718
766 765 764 763 762 761 760 759 758 757 756 755 754 753 752 751 750 749 748 747 745 744 744 743 743 742 741 740 739 739 738 737 737 736 736 735 735 734 734 734 734 733 733 733 732 731 730 729 729 728 727 727 726 725 724 724 724 723 723 723 722 722 722 722 721 721 720 719 719
768 766 765 764 764 762 761 760 759 759 758 757 756 754 754 752 751 750 749 748 747 746 746 745 744 743 742 742 741 740 739 739 738 738 737 736 736 736 735 735 734 734 734 733 733 732 731 730 729 729 728 727 727 726 725 725 725 724 724 724 723 723 723 722 722 721 721 720 719
768 767 766 765 764 764 763 762 761 760 759 758 757 756 755 754 753 752 751 750 749 748 748 746 745 744 744 743 742 742 741 740 739 739 738 737 737 737 736 736 735 735 734 734 733 732 732 731 730 729 729 728 727 727 726 726 725 725 725 724 724 724 723 723 722 721 721 720 719
769 768 767 766 765 764 764 763 762 761 760 759 758 757 756 755 754 753 752 751 750 749 748 747 746 745 745 744 743 743 742 741 740 740 739 739 738 738 737 736 735 735 735 734 734 733 732 731 730 730 729 729 728 727 727 726 726 726 725 725 724 724 724 723 722 721 721 720 719
770 769 768 767 766 765 764 764 763 762 761 759 759 757 756 756 755 754 753 752 751 750 749 748 747 747 746 745 744 744 743 742 741 741 740 739 739 738 738 737 736 735 735 734 734 733 732 731 731 730 729 729 728 728 727 727 726 726 726 725 725 724 724 723 722 722 721 720 719
771 770 769 768 767 766 765 764 763 762 761 760 759 758 757 756 755 754 753 753 752 751 750 749 749 748 747 746 746 745 744 743 742 741 741 740 739 739 738 738 737 736 735 735 734 733 733 732 731 730 730 729 729 728 728 727 727 726 726 725 725 724 724 723 722 722 721 720 719
772 771 770 769 768 767 766 764 764 762 761 760 759 758 757 756 755 754 754 753 752 751 750 749 749 748 747 747 746 745 744 744 743 742 741 740 740 739 739 738 738 737 736 735 734 734 733 732 732 731 730 729 729 728 728 727 727 726 726 725 724 724 724 723 722 722 721 720 719
773 772 771 770 769 768 766 765 764 763 762 761 759 759 758 757 756 755 754 753 752 751 750 750 749 748 747 746 746 745 744 744 743 743 742 741 740 740 739 739 738 737 736 735 734 734 733 733 732 731 730 729 729 729 728 727 727 726 725 725 724 724 723 723 722 721 721 720 719
774 773 771 770 769 768 767 766 765 764 763 761 760 759 758 757 756 755 754 753 752 752 751 750 749 748 747 747 746 745 745 744 744 743 742 741 741 740 740 739 739 738 737 736 735 734 734 733 732 731 730 730 729 729 728 727 727 726 725 725 724 724 723 723 722 721 720 720 719
774 773 772 771 770 769 768 767 765 764 763 762 761 760 759 758 757 756 755 754 753 752 751 750 750 749 748 747 747 746 745 744 744 743 743 742 741 741 740 739 739 738 737 737 736 735 734 734 733 732 731 730 729 729 728 727 727 726 725 725 724 724 723 722 722 721 720 720 719
774 773 772 771 770 769 768 767 766 764 764 763 761 760 759 759 758 757 756 755 754 753 752 751 750 749 749 748 747 746 746 745 744 744 743 742 742 741 740 740 739 739 738 737 737 736 735 734 734 733 732 731 730 729 729 728 727 726 726 725 724 723 723 722 722 721 720 719 719
774 773 772 771 770 769 768 766 765 764 764 763 761 760 759 759 758 757 756 755 754 753 752 751 750 750 749 748 747 747 746 745 745 744 743 743 742 741 741 740 739 739 739 738 737 736 736 735 734 733 732 731 731 730 729 728 727 727 726 725 724 723 723 722 721 721 720 719 719
773 772 771 770 769 768 767 766 765 764 763 762 761 760 759 758 757 756 755 754 754 753 752 751 750 749 749 748 747 747 746 745 745 744 743 743 742 741 741 740 739 739 738 738 737 736 736 735 734 734 733 732 731 730 729 728 728 727 726 725 724 724 723 722 721 720 719 719 718